Hauptseite
METAR-TAF:

METAR-TAF

Flughäfen :

Rheine, Deutschland

Heeresflugplatz Rheine-Bentlage

Breite: 52-18N, Länge: 007-23E, Höhe: 40 m

Beobachtung

Neuester Wetterbericht von vor 1 Stunde und 9 Minuten, um 16:20 UTC
Wind 2 kt aus Südost
Temperatur 11°C
Luftfeuchtigkeit 47%
Luftdruck 1018 hPa

METAR: ETHE 291620Z AUTO 14002KT //// // ////// 11/M00 Q1018 ///

Zeit: 19:29 (17:29 UTC)


TAF: fehlend

Wetterbeobachtungen und Prognosen von mehr als 4000 Flughäfen (METAR und TAF Bericht).

Die verfügbaren Stationen werden durch gelbe und rote Markierungen auf der Karte dargestellt.

Führen Sie die Maus auf sie, um den Namen der Station zu sehen.

Darauf klicken, um die Beobachtung von Wetterbeobachtungen und Prognosen zu sehen.

Um die Karte zu ändern : klicken Sie auf den grünen Tasten mit einem schwarzen Kreuz Zum Vergrößern, auf den grünen Button mit einem Gedankenstrich zu verkleinern, oder auf die grünen Pfeile für benachbarte Karten.


METAR-TAF: